Weather History for Nome, AK

Change the Weather History Date:

Sunday, May 12, 2013

  Actual Average Record
Temperature  
Mean Temperature 26 °F 35 °F  
Max Temperature 30 °F 41 °F 61 °F (1970)
Min Temperature 22 °F 29 °F 5 °F (1937)
Degree Days  
Heating Degree Days 39 30  
Month to date heating degree days 474 390  
Since 1 July heating degree days 13215 12703  
Cooling Degree Days 0    
Month to date cooling degree days 0  
Year to date cooling degree days 0  
Moisture  
Dew Point 22 °F    
Average Humidity 0    
Maximum Humidity 0    
Minimum Humidity 0    
Precipitation  
Precipitation T in 0.03 in 0.46 in (1918)
Month to date precipitation 0.09 0.34  
Year to date precipitation 2.55 3.62  
Snow  
Snow T in 0.10 in 0.70 in (1964)
Month to date snowfall 1.3 1.4  
Since 1 July snowfall 56.2 74.5  
Snow Depth 4.00 in    
Sea Level Pressure  
Sea Level Pressure 29.90 in    
Wind  
Wind Speed 9 mph (NW)    
Max Wind Speed 20 mph    
Max Gust Speed 23 mph    
Visibility 8 miles    
Events Snow    
T = Trace of Precipitation, MM = Missing Value Source: NWS Daily Summary

Daily Weather History Graph

Daily Weather History Graph

Search for Another Location

Airport:

Trip Planner

Search our weather history database for the weather conditions in past years. The results will help you decide how hot, cold, wet, or windy it might be!

Date:

Astronomy

May. 12, 2013 Rise Set
Actual Time 5:51 AM AKDT 12:07 AM AKDT
Civil Twilight 4:12 AM AKDT 1:50 AM AKDT
Nautical Twilight Sun does not rise Sun does not rise
Astronomical Twilight Sun does not rise Sun does not rise
Moon 7:41 AM AKDT (5/12) 2:10 AM AKDT (5/12)
Length of Visible Light 21h 37m
Length of Day
18h 16m
Waxing Crescent, 7% of the Moon is Illuminated
May 12
Waxing Crescent
May 17
First Quarter
May 24
Full
May 31
Last Quarter
Jun 8
New

Hourly Weather History & Observations

Time (AKDT) Temp. Windchill Dew Point Humidity Pressure Visibility Wind Dir Wind Speed Gust Speed Precip Events Conditions
12:08 AM 28.4 °F 21.2 °F 28.4 °F 100% 29.92 in 1.0 mi WSW 6.9 mph - N/A   Mist
12:26 AM 28.4 °F 21.2 °F 26.6 °F 93% 29.92 in 0.8 mi WSW 6.9 mph - 0.00 in Snow Light Snow
12:38 AM 28.4 °F 24.6 °F 26.6 °F 93% 29.92 in 1.2 mi West 3.5 mph - 0.00 in Snow Light Snow
12:53 AM 28.0 °F 21.7 °F 27.0 °F 96% 29.92 in 3.0 mi WSW 5.8 mph - 0.00 in Snow Light Snow
1:53 AM 28.0 °F 20.8 °F 27.0 °F 96% 29.91 in 10.0 mi West 6.9 mph - 0.00 in   Overcast
2:53 AM 27.0 °F 19.5 °F 27.0 °F 100% 29.88 in 10.0 mi West 6.9 mph - N/A   Overcast
3:08 AM 28.4 °F 22.2 °F 26.6 °F 93% 29.88 in 2.5 mi West 5.8 mph - N/A   Overcast
3:18 AM 28.4 °F 22.2 °F 26.6 °F 93% 29.87 in 1.8 mi West 5.8 mph - N/A   Overcast
3:32 AM 26.6 °F 20.0 °F 26.6 °F 100% 29.88 in 2.5 mi West 5.8 mph - N/A   Overcast
3:45 AM 26.6 °F 20.0 °F 26.6 °F 100% 29.86 in 5.0 mi West 5.8 mph - 0.00 in Snow Light Snow
3:53 AM 27.0 °F 20.5 °F 27.0 °F 100% 29.87 in 9.0 mi West 5.8 mph - 0.00 in   Overcast
4:25 AM 26.6 °F 19.1 °F 26.6 °F 100% 29.87 in 6.0 mi WNW 6.9 mph - N/A   Overcast
4:50 AM 26.6 °F 22.6 °F 26.6 °F 100% 29.86 in 3.0 mi WNW 3.5 mph - 0.00 in Snow Light Snow
4:53 AM 27.0 °F 20.5 °F 27.0 °F 100% 29.86 in 4.0 mi WNW 5.8 mph - 0.00 in Snow Light Snow
5:39 AM 26.6 °F 19.1 °F 26.6 °F 100% 29.84 in 10.0 mi West 6.9 mph - 0.00 in   Overcast
5:53 AM 27.0 °F 20.5 °F 26.1 °F 96% 29.85 in 10.0 mi WNW 5.8 mph - 0.00 in   Overcast
6:33 AM 26.6 °F - 24.8 °F 93% 29.84 in 10.0 mi Calm Calm - N/A   Overcast
6:53 AM 28.0 °F - 26.1 °F 92% 29.84 in 10.0 mi Calm Calm - N/A   Overcast
7:53 AM 28.0 °F 24.2 °F 26.1 °F 92% 29.84 in 10.0 mi SE 3.5 mph - N/A   Overcast
8:49 AM 30.2 °F 24.3 °F 26.6 °F 86% 29.84 in 10.0 mi East 5.8 mph - N/A   Overcast
8:53 AM 30.0 °F 22.4 °F 27.0 °F 88% 29.85 in 10.0 mi East 8.1 mph - N/A   Overcast
9:27 AM 28.4 °F 19.7 °F 23.0 °F 80% 29.85 in 10.0 mi NNE 9.2 mph - N/A   Mostly Cloudy
9:53 AM 28.9 °F 19.8 °F 21.9 °F 75% 29.86 in 10.0 mi NNW 10.4 mph - N/A   Mostly Cloudy
10:53 AM 27.0 °F 15.6 °F 17.1 °F 66% 29.88 in 10.0 mi North 13.8 mph - N/A   Scattered Clouds
11:53 AM 27.0 °F 14.3 °F 16.0 °F 63% 29.89 in 10.0 mi North 17.3 mph - N/A   Scattered Clouds
12:53 PM 28.0 °F 20.0 °F 14.0 °F 56% 29.92 in 10.0 mi NNE 8.1 mph 18.4 mph N/A   Scattered Clouds
1:25 PM 28.4 °F 16.6 °F 15.8 °F 59% 29.92 in 10.0 mi North 16.1 mph - N/A   Scattered Clouds
1:36 PM 28.4 °F 17.0 °F 15.8 °F 59% 29.92 in 10.0 mi North 15.0 mph - N/A   Scattered Clouds
1:45 PM 28.4 °F 18.0 °F 12.2 °F 51% 29.92 in 10.0 mi North 12.7 mph - N/A   Scattered Clouds
1:53 PM 28.0 °F 17.5 °F 14.0 °F 56% 29.93 in 10.0 mi North 12.7 mph - N/A   Scattered Clouds
2:53 PM 28.9 °F 17.7 °F 15.1 °F 56% 29.94 in 10.0 mi North 15.0 mph - N/A   Scattered Clouds
3:53 PM 28.9 °F 18.2 °F 14.0 °F 54% 29.95 in 10.0 mi North 13.8 mph - N/A   Scattered Clouds
4:53 PM 28.0 °F 15.7 °F 15.1 °F 58% 29.94 in 10.0 mi North 17.3 mph - N/A   Scattered Clouds
5:53 PM 28.0 °F 16.1 °F 15.1 °F 58% 29.96 in 10.0 mi North 16.1 mph - N/A   Scattered Clouds
6:53 PM 30.0 °F 26.5 °F 15.1 °F 54% 29.96 in 10.0 mi NNW 3.5 mph - N/A   Scattered Clouds
7:53 PM 28.0 °F 17.5 °F 17.1 °F 63% 29.95 in 10.0 mi NNE 12.7 mph - N/A   Scattered Clouds
8:53 PM 27.0 °F 18.0 °F 16.0 °F 63% 29.96 in 10.0 mi NNW 9.2 mph - N/A   Clear
9:53 PM 27.0 °F 16.1 °F 18.0 °F 69% 29.94 in 10.0 mi NNW 12.7 mph - N/A   Scattered Clouds
10:53 PM 26.1 °F 18.4 °F 16.0 °F 66% 29.93 in 10.0 mi North 6.9 mph - N/A   Scattered Clouds
11:53 PM 24.1 °F - 16.0 °F 71% 29.95 in 10.0 mi Calm Calm - N/A   Scattered Clouds